Showing default

AMAZONAS 5, 42934

Orbit data source: Space-Track

AMAZONAS 5, 42934 is a Brazilian payload satellite in GEO that was launched on Mon, 11 Sep 2017 UTC via a PROTON-M/BRIZ-M launch vehicle from the Tyuratam Missile And Space Complex (TTMTR). Payloads include a variety of satellites, spacecraft, and rockets equipped with specific instruments for various scientific and technological missions. These include communications satellites like Starlink; space stations such as the ISS; scientific satellites like the Hubble; Earth observation satellites from companies like Planet Labs, Umbra, and HawkEye 360; GPS; miniature CubeSats for education and research; and military/defense satellites.

Loading next visibility...
AMAZONAS 5 details
Identifier
42934, 2017-053A
Orbit
GEO
Last TLE update2 days ago
Origin
Flag of BRHISPM/HISP (BR / BRAZ)
ManufacturerSS/Loral (MDA)
MissionOperational Commercial Communications
Bus & MotorSSL-1300, R-4D-15?
Mass5,900 kg wet, ~3,500 kg dry
Launch date (UTC)
2017-09-11 (7 years ago)
Launch vehicle
PROTON-M/BRIZ-M
Launch site
Tyuratam Missile And Space Complex (TTMTR)
Object type
Payload
Rocket body
Debris
Shape & HBRBox + 2 Pan, 26 m
Radar Cross Section45.651 m², Large (>1 m²)

Expand to show TLE details & history

TLE from 2 days ago
0 AMAZONAS 5
1 42934U 17053A   24359.08762788 -.00000259  00000-0  00000-0 0  9994
2 42934   0.0310 328.1943 0005063 323.4534 131.9926  1.00270201 26626
Epoch: 2024-12-24T02:06Z
Definitive object data (Epoch: 2024-12-24T02:06:11.048Z)
Latitude0.04827°
Longitude-60.96737°
Altitude35,800.897 km
Speed3.074 km/s
True Right ascension04h 14m 43s
True Declination0° 02' 54"
Sunlit
Object was in daylight at TLE epoch
Visualization TLE readout
Latitude-0.04187°
Longitude92.91263°
Altitude35,780.862 km
Speed3.075 km/s
Apparent Right ascension14h 50m 22s
Apparent Declination-6° 02' 11"
Sunlit
Object is in daylight
Visualization observer readout
Local Sidereal Time11:34:06
Azimuth123.578° SE
Elevation25.61°
Doppler factor1
Orbital elements
Apogee altitude35,809.458 km
Perigee altitude35,766.761 km
Semi-major axis42,166.246 km
Eccentricity0.0005063
Inclination0.031°
RAAN328.1943°
Arg. of periapsis323.4534°
True anomaly132.0357°
Mean anomaly131.9926°
Eccentric anomaly132.01415°
Mean motion0.25067 °/min
BSTARUnknown
Orbital period1436.17 mins
Loading historical data...
42934 neighbors
Authenticating...
Loading maneuver chart data...
Loading historical data...
Loading historical data...
Loading historical data...
Loading historical data...
Loading historical data...
Loading historical data...
Loading historical data...
Other satellites on launch #53 in the year 2017 (2017-09-11 UTC)

AMAZONAS 5 Visibility forecast

Observer location: undefined°, undefined

Span
Click to sort rows by Start time (UTC) header in descending order
Start Az.
Max El. time (UTC)
Max El. Az.
Max El.
End time (UTC)
End Az.
1440 mins2024-12-26 12:12:38.296Z123.592° SE2024-12-27 06:55:38.296Z123.528° SE23.398°2024-12-27 12:12:38.296Z123.6° SE
|